Tracking 29892 objects as of 21-Nov-2024
HD Live streaming from Space Station
objects crossing your sky now

STARLINK-1807

Track STARLINK-1807 now!
10-day predictions
STARLINK-1807 is classified as:


NORAD ID: 46706
Int'l Code: 2020-073AN
Perigee: 553.3 km
Apogee: 555.3 km
Inclination: 53.1 °
Period: 95.6 minutes
Semi major axis: 6925 km
RCS: Unknown
Launch date: October 18, 2020
Source: United States (US)
Launch site: AIR FORCE EASTERN TEST RANGE (AFETR)
Your satellite tracking list
Your tracking list is empty




NASA's NSSDC Master Catalog

Two Line Element Set (TLE):
1 46706U 20073AN  24324.92695293  .00008278  00000-0  57373-3 0  9998
2 46706  53.0530 212.9098 0001487  74.0262 286.0890 15.06413456225572
Source of the keplerian elements: AFSPC